This is the latest recevied weather packets stored in our database for station/object K0CVS. If no packets are shown the sender has not sent any weather packets the latest 10 day(s).
| Time | Temp. | Humidity | Pressure | Rain* | Wind** | Luminosity | Snow |
|---|---|---|---|---|---|---|---|
| 1777678803 | 17.22° C | 33% | 1016.2 hPa | 0 mm | - | 20 W/m² | - |
| 1777678500 | 17.22° C | 33% | 1016.4 hPa | 0 mm | - | 21 W/m² | - |
| 1777678196 | 17.78° C | 33% | 1016.5 hPa | 0 mm | - | 19 W/m² | - |
| 1777677893 | 17.78° C | 32% | 1016.3 hPa | 0 mm | - | 25 W/m² | - |
| 1777677590 | 17.22° C | 32% | 1016.3 hPa | 0 mm | - | 25 W/m² | - |
| 1777677289 | 17.22° C | 34% | 1016.1 hPa | 0 mm | - | 25 W/m² | - |
| 1777676986 | 17.22° C | 32% | 1016.2 hPa | 0 mm | - | 27 W/m² | - |
| 1777676685 | 17.22° C | 32% | 1016.2 hPa | 0 mm | - | 28 W/m² | - |
| 1777676382 | 17.22° C | 32% | 1016.4 hPa | 0 mm | - | 31 W/m² | - |
| 1777676080 | 17.22° C | 32% | 1016.3 hPa | 0 mm | - | 33 W/m² | - |
| 1777675776 | 17.22° C | 32% | 1016.3 hPa | 0 mm | - | 39 W/m² | - |
| 1777675473 | 17.22° C | 32% | 1016.4 hPa | 0 mm | - | 28 W/m² | - |
| 1777675170 | 17.22° C | 32% | 1016.4 hPa | 0 mm | - | 34 W/m² | - |
| 1777674866 | 17.22° C | 33% | 1016.4 hPa | 0 mm | - | 39 W/m² | - |
| 1777674562 | 17.22° C | 30% | 1016.3 hPa | 0 mm | - | 38 W/m² | - |
| 1777674261 | 17.78° C | 30% | 1016.4 hPa | 0 mm | - | 54 W/m² | - |
| 1777673956 | 18.33° C | 30% | 1016.3 hPa | 0 mm | - | 33 W/m² | - |
| 1777673653 | 18.33° C | 31% | 1016.1 hPa | 0 mm | - | 67 W/m² | - |
| 1777673351 | 18.33° C | 32% | 1016.4 hPa | 0 mm | - | 66 W/m² | - |
| 1777673048 | 18.33° C | 30% | 1016.4 hPa | 0 mm | - | 58 W/m² | - |
| 1777672744 | 18.33° C | 31% | 1016.7 hPa | 0 mm | - | 55 W/m² | - |
| 1777672441 | 18.33° C | 29% | 1016.7 hPa | 0 mm | - | 303 W/m² | - |
| 1777672136 | 18.33° C | 31% | 1016.7 hPa | 0 mm | - | 383 W/m² | - |
| 1777671831 | 17.78° C | 31% | 1016.7 hPa | 0 mm | - | 392 W/m² | - |
| 1777671527 | 18.33° C | 32% | 1016.8 hPa | 0 mm | - | 68 W/m² | - |
* Rain latest hour (hover to see other rain measurements)
** Current wind speed in m/s (hover to see current wind gust speed)